Thursday, August 21, 2014
22:04 UTC
  |  Log In   |  Register Free
Airport Search:

Skyway Estates Airport
(60G)

Skyway Estates Airport Diagram
No Airport Diagram Available

FAA data valid effective July 24, 2014 until September 18, 2014 (unless otherwise noted).

 
 
 
 
 
 
 
 
 
 
 
 
 
 

Current Aviation Weather for Skyway Estates Airport (60G)

The most recent METAR observation for KFPK was updated at: 1835 UTC
METAR Summary (Translated METAR)
KFPK
281835Z AUTO 30007KT 10SM SCT031 SCT044 OVC060 20/12 A2995 RMK AO2 T02000119
KLAN
(15.8 nm NE from KFPK)
281753Z 34009KT 10SM FEW026 OVC060 18/11 A2997 RMK AO2 SLP147 T01830111 10189 20156 50005
TAF Summary (Translated TAF)
KLAN
(15.8 nm NE from KFPK)
212021Z 2120/2218 VRB04KT P6SM OVC025 FM212100 16005KT P6SM -SHRA VCTS OVC025CB FM220000 17005KT P6SM SCT060 BKN120 FM220600 17005KT P6SM VCTS SCT035CB BKN060 FM221300 17005KT P6SM SCT060 BKN120
  Airport Weather Conditions for 60G

Current weather conditions are
not available for 60G


The nearest NOAA weather station
is at FPK, (7.1 nm SW from 60G)
  
 Current Weather at FPK
78° F
Overcast
North winds at 0.0 mph
FPK NOAA Radar

Pressure: 29.96 in
Humidity: 75%
Wind: Calm
Dew Point: 69.8°F
Visibility: 7.00 mi


Airport Weather Forecast for 60G

Translated METAR and TAF for KFPK
Translated METAR for KFPK (2158 UTC 21 August 2014)
found at http://aviationweather.gov/adds/metars/
 
METAR text: KFPK 212155Z AUTO 22004KT 10SM SCT021 SCT042 BKN120 25/22 A2996 RMK AO2 P0018 T02450216
Conditions at: KFPK (CHARLOTTE , MI, US) observed 2155 UTC 21 August 2014
Temperature: 24.5°C (76°F)
Dewpoint: 21.6°C (71°F) [RH = 84%]
Pressure (altimeter): 29.96 inches Hg (1014.6 mb)
Winds: from the SW (220 degrees) at 5 MPH (4 knots; 2.1 m/s)
Visibility: 10 or more miles (16+ km)
Ceiling: 12000 feet AGL
Clouds: scattered clouds at 2100 feet AGL
scattered clouds at 4200 feet AGL
broken clouds at 12000 feet AGL
Weather: automated observation with no human augmentation;
there may or may not be significant weather present at this time
Translated TAF for KFPK

There is no translated TAF available for this airport

Find All Airport Services Find A Hotel Find A Rental Car Find A Golf Course Find A Restaurant $100 Hamburger



FBO's on the Field
FBO Company Facility Photos Services Transportation Aviation Fuel Prices: Prices include tax
Catering Weather Repair Courtesy Rental Type 100LL JetA JetA+ MOGAS 8087
 
Add another FBO Facility Photos Catering Weather Repair Courtesy Rental Type 100LL JetA JetA+ MOGAS 8087
Services Transportation Aviation Fuel Prices: Prices include tax
There are no FBO's currently reporting fuel at 60G. List your FBO now


GlobalAir.com Airport Resource Center model-print
model-print
model-print
model-print